Marshall, MI

6:35 AM EST on February 22, 2017 (GMT -0500)
Brooks

Weather History for KRMY - February, 2013

Change the Weather History Date:

Wednesday, February 20, 2013

  Actual Average (KBTL) Record (KBTL)
Temperature  
Mean Temperature 18 °F -  
Max Temperature 21 °F 34 °F 62 °F (2017)
Min Temperature 16 °F 20 °F -13 °F (2015)
Degree Days  
Heating Degree Days 46    
Moisture  
Dew Point 12 °F    
Average Humidity 74    
Maximum Humidity 86    
Minimum Humidity 64    
Precipitation  
Precipitation 0.00 in - - ()
Sea Level Pressure  
Sea Level Pressure 30.13 in    
Wind  
Wind Speed 12 mph (WNW)    
Max Wind Speed 17 mph    
Max Gust Speed 26 mph    
Visibility 9 miles    
Events Snow    
Averages and records for this station are not official NWS values.
T = Trace of Precipitation, MM = Missing Value Source: NWS Daily Summary

Daily Weather History Graph

Daily Weather History Graph

Search for Another Location

Airport or City:

Trip Planner

Search our weather history database for the weather conditions in past years. The results will help you decide how hot, cold, wet, or windy it might be!

Date:

Astronomy

Feb. 20, 2013 Rise Set
Actual Time 7:28 AM EST 6:19 PM EST
Civil Twilight 7:00 AM EST 6:47 PM EST
Nautical Twilight 6:27 AM EST 7:20 PM EST
Astronomical Twilight 5:55 AM EST 7:52 PM EST
Moon 1:36 PM EST (2/20) 3:51 AM EST (2/20)
Length of Visible Light 11h 47m
Length of Day
10h 50m
Waxing Gibbous, 76% of the Moon is Illuminated
Feb 20
Waxing Gibbous
Feb 25
Full
Mar 4
Last Quarter
Mar 11
New
Mar 19
First Quarter

Hourly Weather History & Observations

Time (EST) Temp. Windchill Dew Point Humidity Pressure Visibility Wind Dir Wind Speed Gust Speed Precip Events Conditions
12:14 AM 17.2 °F 3.3 °F 12.6 °F 82% 29.96 in 7.0 mi West 13.8 mph 23.0 mph N/A Snow Light Snow
12:34 AM 16.9 °F 2.3 °F 10.6 °F 76% 29.97 in 10.0 mi West 15.0 mph 26.5 mph N/A   Overcast
12:53 AM 16.9 °F 2.3 °F 10.9 °F 77% 29.97 in 10.0 mi West 15.0 mph 20.7 mph N/A   Overcast
1:13 AM 16.7 °F 1.5 °F 11.5 °F 80% 29.97 in 10.0 mi West 16.1 mph 21.9 mph N/A   Overcast
1:34 AM 16.7 °F 2.6 °F 10.9 °F 78% 29.98 in 10.0 mi West 13.8 mph 25.3 mph N/A   Overcast
1:53 AM 16.5 °F 1.8 °F 10.9 °F 79% 29.99 in 10.0 mi West 15.0 mph 19.6 mph N/A Snow Light Snow
2:13 AM 16.3 °F 2.1 °F 10.8 °F 79% 29.99 in 10.0 mi West 13.8 mph - N/A   Overcast
2:34 AM 16.3 °F 3.4 °F 11.3 °F 81% 30.00 in 5.0 mi West 11.5 mph - N/A Snow Light Snow
2:53 AM 16.2 °F 1.9 °F 11.7 °F 82% 30.00 in 7.0 mi West 13.8 mph - N/A   Overcast
3:13 AM 16.2 °F 2.5 °F 11.8 °F 83% 30.00 in 7.0 mi West 12.7 mph 18.4 mph N/A Snow Light Snow
3:34 AM 16.3 °F 3.4 °F 12.2 °F 84% 30.00 in 5.0 mi West 11.5 mph - N/A Snow Light Snow
3:53 AM 16.5 °F 3.6 °F 12.6 °F 84% 30.01 in 3.0 mi West 11.5 mph 17.3 mph N/A Snow Light Snow
4:34 AM 16.3 °F 0.5 °F 11.8 °F 82% 30.03 in 4.0 mi West 17.3 mph 21.9 mph N/A Snow Light Snow
4:53 AM 16.2 °F 3.9 °F 12.0 °F 84% 30.04 in 3.0 mi West 10.4 mph 19.6 mph N/A Snow Light Snow
5:14 AM 16.2 °F 4.7 °F 11.7 °F 82% 30.04 in 5.0 mi WNW 9.2 mph 17.3 mph N/A Snow Light Snow
5:33 AM 16.2 °F 1.3 °F 11.5 °F 82% 30.05 in 10.0 mi West 15.0 mph - N/A Snow Light Snow
5:53 AM 16.3 °F 3.4 °F 10.8 °F 79% 30.05 in 10.0 mi WNW 11.5 mph 17.3 mph N/A   Overcast
6:14 AM 16.3 °F 6.7 °F 12.0 °F 83% 30.06 in 4.0 mi West 6.9 mph - N/A Snow Light Snow
6:33 AM 16.3 °F 9.2 °F 12.7 °F 86% 30.07 in 2.0 mi WNW 4.6 mph - N/A Snow Light Snow
7:14 AM 16.2 °F 3.2 °F 12.0 °F 84% 30.08 in 5.0 mi WNW 11.5 mph - N/A Snow Light Snow
7:33 AM 16.2 °F 3.2 °F 11.7 °F 82% 30.08 in 7.0 mi WNW 11.5 mph - N/A Snow Light Snow
7:53 AM 16.2 °F 6.5 °F 11.1 °F 81% 30.09 in 10.0 mi WNW 6.9 mph - N/A Snow Light Snow
8:14 AM 16.2 °F 4.7 °F 10.6 °F 79% 30.10 in 10.0 mi WNW 9.2 mph - N/A   Overcast
8:33 AM 16.3 °F 4.1 °F 10.2 °F 77% 30.11 in 10.0 mi NW 10.4 mph - N/A Snow Light Snow
8:53 AM 16.7 °F 7.2 °F 10.6 °F 77% 30.11 in 10.0 mi NW 6.9 mph - N/A Snow Light Snow
9:14 AM 16.9 °F 4.8 °F 10.0 °F 75% 30.11 in 10.0 mi NW 10.4 mph 17.3 mph N/A   Overcast
9:33 AM 17.2 °F 5.2 °F 9.9 °F 73% 30.12 in 10.0 mi WNW 10.4 mph 18.4 mph N/A   Overcast
9:54 AM 17.8 °F 8.5 °F 9.9 °F 71% 30.12 in 10.0 mi WNW 6.9 mph 20.7 mph N/A   Overcast
10:14 AM 18.0 °F 5.4 °F 9.1 °F 68% 30.12 in 10.0 mi NW 11.5 mph - N/A   Overcast
10:33 AM 18.1 °F 5.6 °F 8.8 °F 67% 30.13 in 10.0 mi WNW 11.5 mph 16.1 mph N/A Snow Light Snow
10:54 AM 18.1 °F 4.4 °F 8.2 °F 65% 30.14 in 10.0 mi NW 13.8 mph 20.7 mph N/A   Overcast
11:14 AM 18.3 °F 5.9 °F 8.1 °F 64% 30.14 in 10.0 mi NW 11.5 mph 20.7 mph N/A   Overcast
11:33 AM 18.9 °F 5.9 °F 9.0 °F 65% 30.14 in 10.0 mi WNW 12.7 mph 20.7 mph N/A Snow Light Snow
11:54 AM 18.9 °F 7.2 °F 9.1 °F 66% 30.15 in 10.0 mi WNW 10.4 mph 18.4 mph N/A   Overcast
12:13 PM 19.0 °F 6.8 °F 9.3 °F 66% 30.15 in 10.0 mi NW 11.5 mph 19.6 mph N/A Snow Light Snow
12:34 PM 19.2 °F 5.8 °F 9.7 °F 66% 30.15 in 7.0 mi NW 13.8 mph 19.6 mph N/A   Overcast
12:53 PM 19.4 °F 7.9 °F 10.2 °F 68% 30.16 in 10.0 mi WNW 10.4 mph 17.3 mph N/A Snow Light Snow
1:13 PM 19.8 °F 10.8 °F 10.9 °F 69% 30.16 in 10.0 mi WNW 6.9 mph - N/A Snow Light Snow
1:34 PM 19.9 °F 7.9 °F 11.1 °F 69% 30.16 in 10.0 mi WNW 11.5 mph - N/A Snow Light Snow
1:53 PM 19.8 °F 8.3 °F 11.1 °F 69% 30.16 in 7.0 mi WNW 10.4 mph 19.6 mph N/A Snow Light Snow
2:13 PM 19.9 °F 7.9 °F 11.1 °F 69% 30.15 in 10.0 mi West 11.5 mph - N/A Snow Light Snow
2:34 PM 20.3 °F 10.6 °F 11.7 °F 69% 30.15 in 10.0 mi WNW 8.1 mph - N/A Snow Light Snow
2:53 PM 20.5 °F 8.6 °F 11.5 °F 68% 30.16 in 10.0 mi WNW 11.5 mph - N/A   Overcast
3:13 PM 20.7 °F 8.8 °F 11.3 °F 67% 30.18 in 10.0 mi WNW 11.5 mph 16.1 mph N/A   Overcast
3:34 PM 20.7 °F 8.8 °F 11.3 °F 67% 30.19 in 10.0 mi West 11.5 mph 18.4 mph N/A   Overcast
3:53 PM 20.8 °F 8.4 °F 11.8 °F 68% 30.21 in 10.0 mi West 12.7 mph 19.6 mph N/A   Overcast
4:13 PM 20.8 °F 6.8 °F 11.7 °F 68% 30.21 in 10.0 mi WNW 16.1 mph 21.9 mph N/A Snow Light Snow
4:34 PM 21.0 °F 8.1 °F 12.2 °F 69% 30.22 in 10.0 mi West 13.8 mph 21.9 mph N/A   Overcast
4:53 PM 20.8 °F 8.4 °F 11.8 °F 68% 30.22 in 10.0 mi WNW 12.7 mph 18.4 mph N/A   Overcast
5:14 PM 21.0 °F 12.4 °F 12.6 °F 70% 30.21 in 10.0 mi WNW 6.9 mph - N/A   Overcast
5:33 PM 20.8 °F 10.4 °F 11.8 °F 68% 30.21 in 10.0 mi WNW 9.2 mph - N/A   Overcast
5:53 PM 20.8 °F 11.2 °F 12.7 °F 71% 30.20 in 10.0 mi WNW 8.1 mph - N/A Snow Light Snow
6:14 PM 20.8 °F 11.2 °F 13.3 °F 73% 30.21 in 10.0 mi WNW 8.1 mph 17.3 mph N/A Snow Light Snow
6:33 PM 20.7 °F 8.8 °F 13.8 °F 75% 30.22 in 7.0 mi WNW 11.5 mph - N/A Snow Light Snow
6:54 PM 20.5 °F 10.8 °F 13.8 °F 75% 30.22 in 10.0 mi NW 8.1 mph - N/A Snow Light Snow
7:14 PM 20.7 °F 9.5 °F 13.8 °F 75% 30.22 in 10.0 mi WNW 10.4 mph 16.1 mph N/A Snow Light Snow
7:33 PM 20.7 °F 8.8 °F 13.5 °F 74% 30.22 in 10.0 mi NW 11.5 mph 17.3 mph N/A   Overcast
7:54 PM 20.8 °F 11.2 °F 13.6 °F 74% 30.23 in 10.0 mi NW 8.1 mph 16.1 mph N/A Snow Light Snow
8:14 PM 20.8 °F 9.0 °F 13.1 °F 72% 30.23 in 10.0 mi NW 11.5 mph 17.3 mph N/A   Overcast
8:33 PM 21.0 °F 13.4 °F 13.5 °F 73% 30.23 in 10.0 mi NW 5.8 mph - N/A Snow Light Snow
8:54 PM 21.2 °F 10.1 °F 13.6 °F 73% 30.24 in 10.0 mi NW 10.4 mph 17.3 mph N/A Snow Light Snow
9:13 PM 21.0 °F 10.6 °F 13.8 °F 74% 30.24 in 10.0 mi NW 9.2 mph 20.7 mph N/A   Overcast
9:33 PM 21.0 °F 14.6 °F 13.8 °F 74% 30.24 in 10.0 mi NW 4.6 mph - N/A   Overcast
9:54 PM 21.0 °F 13.4 °F 14.2 °F 75% 30.24 in 10.0 mi NW 5.8 mph - N/A Snow Light Snow
10:13 PM 21.0 °F 11.4 °F 14.2 °F 75% 30.24 in 10.0 mi NW 8.1 mph 16.1 mph N/A   Overcast
10:33 PM 21.0 °F 13.4 °F 14.5 °F 76% 30.24 in 10.0 mi NW 5.8 mph - N/A Snow Light Snow
10:53 PM 21.0 °F 13.4 °F 14.5 °F 76% 30.24 in 10.0 mi NNW 5.8 mph - N/A Snow Light Snow
11:34 PM 21.0 °F 12.4 °F 14.7 °F 77% 30.24 in 10.0 mi NW 6.9 mph - N/A Snow Light Snow
11:53 PM 21.0 °F 13.4 °F 14.9 °F 77% 30.24 in 10.0 mi WNW 5.8 mph - N/A   Overcast